Location: Dehesa de la Cepeda
(40.6574°N, 4.3013°W)
Time: 01:14:58
(UTC+00:00)

Courier 1B - Pass Details

Date: 10 August 2021
Orbit: 963 x 1209 km, 28.3° (Epoch: 17 September)

Event Time Altitude Azimuth Distance (km) Brightness Sun altitude
Rises 16:13:47 0° 238° (WSW) 3,933 11.5 34.2°
Reaches altitude 10° 16:16:53 10° 228° (SW) 3,013 11.0 33.6°
Maximum altitude 16:23:10 30° 171° (S) 1,969 9.4 32.4°
Drops below altitude 10° 16:29:41 10° 114° (ESE) 3,126 9.8 31.2°
Sets 16:32:57 0° 104° (ESE) 4,103 10.3 30.6°
